Location: Winthrop
(48.4780°N, 120.1850°W)
Time: 19:21:27
(UTC-08:00)

Envisat - Pass Details

Date: 02 December 2022
Orbit: 763 x 765 km, 98.2° (Epoch: 05 February)

Event Time Altitude Azimuth Distance (km) Brightness Sun altitude
Rises 16:36:31 0° 210° (SSW) 3,218 7.3 -5.0°
Reaches altitude 10° 16:39:34 10° 229° (SW) 2,298 7.1 -5.4°
Maximum altitude 16:42:56 18° 271° (W) 1,828 6.0 -5.9°
Drops below altitude 10° 16:46:19 10° 313° (NW) 2,311 5.8 -6.4°
Sets 16:49:24 0° 333° (NNW) 3,243 6.3 -6.9°
